Location: Lafig�re
(44.4503°N, 4.0357°E)
Time: 15:38:39
(UTC+00:00)

SL-14 R/B - Pass Details

Date: 24 September 2020
Orbit: 519 x 554 km, 82.4° (Epoch: 25 October)

Event Time Altitude Azimuth Distance (km) Brightness Sun altitude
Rises 19:56:24 0° 348° (NNW) 2,687 7.4 -25.0°
Reaches altitude 10° 19:58:34 10° 345° (NNW) 1,797 6.4 -25.3°
Enters shadow 20:01:47 52° 314° (NW) 673 4.0 -25.8°
